Regional Weather Roundup
Issued by NWS Charleston, SC

Current Version | Previous Version | Text Only | Print | Product List | Glossary Off
Versions: 1 2 3 4 5 6 7 8 9 10 11 12 13 14 15 16 17 18 19 20 21 22 23 24 25 26 27 28 29 30 31 32 33 34 35 36 37 38 39 40 41 42 43 44 45 46 47 48 49 50

000
ASUS42 KCHS 301310
RWRCHS

REGIONAL WEATHER ROUNDUP
NATIONAL WEATHER SERVICE CHARLESTON SC
900 AM EDT WED JUL 30 2014

NOTE: "FAIR" INDICATES FEW OR NO CLOUDS BELOW 12,000 FEET WITH NO
SIGNIFICANT WEATHER AND/OR OBSTRUCTIONS TO VISIBILITY.

NOT ALL STATIONS ARE QUALITY CONTROLLED BY THE NATIONAL
WEATHER SERVICE. USE DATA WITH CAUTION...ESPECIALLY
DEWPOINT OBSERVATIONS.

SCZ027-030-031-034>040-042>050-301400-
...SOUTH CAROLINA...

CITY           SKY/WX    TMP DP  RH WIND       PRES   REMARKS
N CHARLESTON   MOSUNNY   81  73  76 NE6       29.99S
WATERFRONT PRK   N/A     81 N/A N/A NE8         N/A
FORT JOHNSON   NOT AVBL
MOUNT PLEASANT FAIR      81  73  78 CALM      30.00R
JOHNS ISLAND   MOSUNNY   81  72  74 CALM      29.99S
PINOPOLIS        N/A     81  72  74 CALM      29.92S
MONCKS CORNER    N/A     79  73  83 CALM      30.00S
SUMMERVILLE    FAIR      77  73  88 CALM      30.01R
BEAUFORT MCAS  MOSUNNY   78  71  79 S6        29.99R
BEAUFORT ARPT  PTSUNNY   79  72  78 NE7       29.98S
HILTON HEAD IS MOSUNNY   75  70  83 CALM      29.99S
GEORGETOWN     NOT AVBL
WALTERBORO     SUNNY     79  72  78 E7        30.01R
ORANGEBURG     SUNNY     75  62  64 NE8       30.02R
BARNWELL       FAIR      75  63  64 NE8       30.01S
AIKEN          FAIR      73  63  68 NE9       30.06R
MANNING        FAIR      73  73 100 NE5       30.02R
KINGSTREE      NOT AVBL
COLUMBIA       MOSUNNY   75  58  55 NE5       30.03R
SUMTER         SUNNY     72  64  75 NE9       30.02R
FLORENCE       SUNNY     74  66  76 N6        30.03R
MYRTLE BEACH   MOSUNNY   81  70  69 NE9       30.00F
N MYRTLE BEACH SUNNY     79  69  71 NE7       30.01S

$$

GAZ063-065-086>088-099>101-113>116-118-119-134-136>141-150-301400-
...GEORGIA...

CITY           SKY/WX    TMP DP  RH WIND       PRES   REMARKS
SAVANNAH ARPT  PTSUNNY   79  67  66 CALM      29.99R
HUNTER AAF     MOSUNNY   79  70  74 E5        29.97R
FORT STEWART   PTSUNNY   74  65  73 NE2       29.98R
STATESBORO     NOT AVBL
SYLVANIA       SUNNY     72  69  89 CALM      30.01R
CLAXTON        FAIR      73  68  83 CALM      29.99R
THOMSON        MOSUNNY   73  65  75 NE6       30.07S
AUGUSTA-BUSH   SUNNY     73  60  63 NE7       30.01R
AUGUSTA-DANIEL SUNNY     75  59  57 NE7       30.03R
SWAINSBORO     FAIR      73  66  78 NE3       30.01S
VIDALIA          N/A     73  63  68 NW5       30.00S
ALMA           SUNNY     74  62  66 N3        30.00R
WAYCROSS       PTSUNNY   78  66  66 N5        30.00R
JESUP          PTSUNNY   77  64  65 NW3       29.99R
BRUNSWICK      MOSUNNY   77  66  69 CALM      29.98S
SAINT SIMONS   PTSUNNY   79  67  66 NW6       29.97R

$$

SCZ027-028-034-036>038-045-046-048>050-GAZ119-141-301400-
...LAKE AND SUPPLEMENTAL COASTAL OBSERVATIONS...

STATION/POSITION TIME  TEMP    WIND        PRES    WAVE   SWELL
                       AIR SEA DIR/SP/G            HT/PER HT/PER/DIR
                 (UTC) (F)     (DEG/KT/KT) (MB)    (FT/S) (FT/S/D)
UPR LAKE MARION  NOT AVBL
WINYAH BAY       1200   74     340/  2     1015.0S
LAKE MURRAY      1200   70      10/  2/  7 1016.3S
ACE BASIN NERRS  1200   74      20/  1     1015.0S
FORT PULASKI     1300   81      80/ 13/ 15 1015.5R
SAPELO ISLAND    1200   76      20/  4     1015.0S

$$

ANZ835-935-AMZ111-154-330-350-352-354-374-450-454-472-301400-
...C-MAN AND BUOY OBSERVATIONS...

STATION/POSITION TIME  TEMP    WIND        PRES    WAVE   SWELL
                       AIR SEA DIR/SP/G            HT/PER HT/PER/DIR
                 (UTC) (F)     (DEG/KT/KT) (MB)    (FT/S) (FT/S/D)
FOLLY BEACH CMAN 1200   81      70/ 11/ 14 1015.6R
BUOY 41004       1300   82 84   70/ 10/ 12 1014.9R   2/ 8   2/ 8
BUOY 41008       1300   83 85   60/  8/ 10 1014.6R   2/ 8   2/120/ 8
5E ST. MARYS GA  1300      85                N/A     2/ 8
FRYING PAN BUOY  NOT AVBL
BUOY 41025       1300          VRB 12/ 16  1016.7R   3/ 6   2/ 70/ 6
CAPE LOOKOUT NC  1200   78      50/ 13/ 14 1016.3R
BUOY 41002       1222   76 80  350/  6/ 10 1014.7S   5/ 7   5/210/ 7
BUOY 41010       1300   83 84  220/  4/  6 1014.7R   3/ 4   2/260/ 4
BUOY 41012       NOT AVBL
ST AUGUSTINE FL  1300   79     300/  5/  6 1015.5R
CAPERS NEARSHORE 1200   82      90/  8/ 10   N/A
FRIPP NEARSHORE  NOT AVBL


$$



USA.gov is the U.S. government's official web portal to all federal, state and local government web resources and services.